This demonstration page uses our WeatherBlox Daily Observations layout. Learn more.

Left ArrowRight Arrow

39.51506, -84.39828

Hourly Observations for December 7, 2018

Temp ( °F °C ) Dew Point ( °F °C ) Humidity (%) Winds ( mph kmh ) Pressure ( in mb ) Visibility ( mi km ) Precip ( " mm )
12:15 am 00:15 Clear 27 -2.8 23 -5 85 85 NNW 3 6 30.45 1031 10 16 N/A
12:35 am 00:35 Clear 26 -3.2 22 -5.4 85 85 NNW 5 7 30.45 1031 10 16 N/A
12:55 am 00:55 Clear 26 -3.5 22 -5.7 85 85 NNW 5 7 30.45 1031 10 16 N/A
1:15 am 01:15 Clear 26 -3.6 22 -5.7 86 86 N N/A 30.48 1032 10 16 N/A
1:35 am 01:35 Clear 25 -4 22 -5.8 87 87 N N/A 30.48 1032 10 16 N/A
1:55 am 01:55 Clear 24 -4.2 21 -6 87 87 NW 3 6 30.48 1032 10 16 N/A
2:15 am 02:15 Clear 24 -4.5 20 -6.4 87 87 NW 3 6 30.50 1033 10 16 N/A
2:35 am 02:35 Clear 24 -4.6 20 -6.7 85 85 N N/A 30.50 1033 10 16 N/A
2:55 am 02:55 Clear 22 -5.3 20 -6.6 91 91 N N/A 30.50 1033 10 16 N/A
3:15 am 03:15 Clear 23 -5.1 20 -6.6 89 89 N N/A 30.50 1033 10 16 N/A
3:35 am 03:35 Clear 22 -5.3 19 -7 88 88 N N/A 30.50 1033 10 16 N/A
3:55 am 03:55 Clear 22 -5.5 19 -7.4 87 87 N N/A 30.50 1033 10 16 N/A
4:15 am 04:15 Clear 22 -5.5 18 -7.6 85 85 NNE 3 6 30.50 1033 10 16 N/A
4:35 am 04:35 Clear 22 -5.4 18 -7.8 83 83 N N/A 30.50 1033 10 16 N/A
4:55 am 04:55 Clear 22 -5.5 17 -8.1 82 82 N N/A 30.50 1033 10 16 N/A
5:15 am 05:15 Clear 22 -5.4 17 -8.1 82 82 N N/A 30.50 1033 10 16 N/A
5:35 am 05:35 Clear 19 -7 17 -8.2 91 91 N N/A 30.53 1034 10 16 N/A
5:55 am 05:55 Clear 20 -6.8 18 -7.8 93 93 N N/A 30.53 1034 7 11 N/A
6:15 am 06:15 Clear 18 -8 16 -9 93 93 N N/A 30.53 1034 7 11 N/A
6:35 am 06:35 Clear 18 -8 16 -9.1 92 92 N N/A 30.53 1034 7 11 N/A
6:55 am 06:55 Clear 18 -7.8 16 -9 91 91 N N/A 30.56 1035 7 11 N/A
7:15 am 07:15 Clear 19 -7.5 16 -8.7 91 91 N 3 6 30.56 1035 10 16 N/A
7:35 am 07:35 Clear 17 -8.4 15 -9.7 90 90 N N/A 30.56 1035 10 16 N/A
7:55 am 07:55 Sunny 18 -7.9 16 -8.9 93 93 N N/A 30.56 1035 7 11 N/A
8:15 am 08:15 Sunny 17 -8.4 15 -9.5 92 92 N N/A 30.59 1036 7 11 N/A
8:35 am 08:35 Sunny 19 -7 17 -8.1 92 92 N N/A 30.59 1036 7 11 N/A
8:55 am 08:55 Sunny 21 -6 19 -7.5 89 89 N N/A 30.59 1036 10 16 N/A
9:15 am 09:15 Sunny 23 -5.1 19 -7.4 84 84 N N/A 30.59 1036 10 16 N/A
9:35 am 09:35 Sunny 24 -4.4 19 -7.5 79 79 N N/A 30.62 1037 10 16 N/A
9:55 am 09:55 Sunny 25 -4 19 -7.4 77 77 N N/A 30.62 1037 10 16 N/A
10:15 am 10:15 Sunny 27 -2.6 20 -6.4 75 75 N N/A 30.62 1037 10 16 N/A
10:35 am 10:35 Sunny 28 -2.3 21 -6.2 75 75 N N/A 30.62 1037 10 16 N/A
10:55 am 10:55 Sunny 28 -2 20 -6.4 72 72 N N/A 30.59 1036 10 16 N/A
11:15 am 11:15 Sunny 29 -1.7 20 -6.7 69 69 N N/A 30.56 1035 10 16 N/A
11:35 am 11:35 Sunny 29 -1.7 18 -7.6 64 64 N N/A 30.56 1035 10 16 N/A
11:55 am 11:55 Sunny 30 -1.2 19 -7.4 63 63 N N/A 30.56 1035 10 16 N/A
12:15 pm 12:15 Sunny 31 -0.8 18 -7.6 60 60 SSE 3 6 30.56 1035 10 16 N/A
12:35 pm 12:35 Sunny 31 -0.5 19 -7.4 60 60 N N/A 30.56 1035 10 16 N/A
12:55 pm 12:55 Sunny 32 -0.2 19 -7.1 60 60 WSW 5 7 30.53 1034 10 16 N/A
1:15 pm 13:15 Sunny 32 0.1 20 -6.8 60 60 SSW 3 6 30.53 1034 10 16 N/A
1:35 pm 13:35 Sunny 32 0.2 19 -7.4 57 57 W 3 6 30.53 1034 10 16 N/A
1:55 pm 13:55 Sunny 33 0.8 18 -7.8 53 53 W 3 6 30.53 1034 10 16 N/A
2:15 pm 14:15 Sunny 33 0.8 17 -8.1 52 52 W 5 7 30.50 1033 10 16 N/A
2:35 pm 14:35 Sunny 34 1.3 19 -7.3 53 53 NW 6 9 30.50 1033 10 16 N/A
2:55 pm 14:55 Sunny 34 1.2 18 -8 51 51 W 5 7 30.50 1033 10 16 N/A
3:15 pm 15:15 Sunny 34 1 18 -7.8 52 52 WNW 5 7 30.50 1033 10 16 N/A
3:35 pm 15:35 Sunny 34 0.9 18 -8 52 52 N N/A 30.50 1033 10 16 N/A
3:55 pm 15:55 Sunny 33 0.7 19 -7.1 56 56 N N/A 30.50 1033 10 16 N/A
4:15 pm 16:15 Sunny 33 0.7 18 -8 53 53 NNW 6 9 30.50 1033 10 16 N/A
4:35 pm 16:35 Sunny 33 0.6 17 -8.4 51 51 NNW 3 6 30.50 1033 10 16 N/A
4:55 pm 16:55 Sunny 32 -0.2 18 -7.6 58 58 N 3 6 30.50 1033 10 16 N/A
5:15 pm 17:15 Clear 31 -0.6 18 -7.6 60 60 N 3 6 30.50 1033 10 16 N/A
5:35 pm 17:35 Clear 31 -0.8 18 -7.6 60 60 N N/A 30.50 1033 10 16 N/A
5:55 pm 17:55 Clear 29 -1.8 19 -7.3 66 66 N N/A 30.50 1033 10 16 N/A
6:15 pm 18:15 Clear 27 -2.8 20 -6.5 76 76 N N/A 30.50 1033 10 16 N/A
6:35 pm 18:35 Clear 27 -3 21 -6.1 79 79 N N/A 30.53 1034 10 16 N/A
6:55 pm 18:55 Clear 26 -3.1 21 -6 81 81 N N/A 30.53 1034 10 16 N/A
7:15 pm 19:15 Clear 25 -3.8 20 -6.5 82 82 N N/A 30.53 1034 10 16 N/A
7:35 pm 19:35 Clear 24 -4.3 20 -6.7 84 84 N N/A 30.53 1034 10 16 N/A
7:55 pm 19:55 Clear 24 -4.5 20 -6.8 84 84 N N/A 30.56 1035 10 16 N/A
8:15 pm 20:15 Clear 24 -4.3 21 -6.3 86 86 N N/A 30.56 1035 10 16 N/A
8:35 pm 20:35 Clear 23 -5 21 -6.3 91 91 N N/A 30.56 1035 10 16 N/A
8:55 pm 20:55 Clear 22 -5.8 19 -7.4 89 89 N N/A 30.56 1035 10 16 N/A
9:15 pm 21:15 Clear 22 -5.3 19 -7 88 88 N N/A 30.56 1035 10 16 N/A
9:35 pm 21:35 Clear 22 -5.6 19 -7 90 90 N N/A 30.56 1035 10 16 N/A
9:55 pm 21:55 Clear 22 -5.8 19 -7.3 89 89 N N/A 30.56 1035 10 16 N/A
10:15 pm 22:15 Clear 21 -6 19 -7.5 89 89 N N/A 30.56 1035 10 16 N/A
10:35 pm 22:35 Clear 20 -6.8 18 -8 91 91 N N/A 30.56 1035 10 16 N/A
10:55 pm 22:55 Clear 21 -6.1 19 -7.3 91 91 N N/A 30.56 1035 10 16 N/A
11:15 pm 23:15 Clear 21 -6.1 19 -7.3 91 91 N N/A 30.56 1035 10 16 N/A
11:35 pm 23:35 Clear 19 -7.4 16 -8.9 89 89 N N/A 30.56 1035 10 16 N/A
11:55 pm 23:55 Clear 19 -7.4 16 -8.8 90 90 N N/A 30.56 1035 10 16 N/A

Powered by AerisWeather